Printer-friendly version

IAU Minor Planet Center

Minor Planet Center

MPEC 2004-T33 : 2004 TG10

The following Minor Planet Electronic Circular may be linked-to from your own Web pages, but must not otherwise be redistributed electronically.


Read MPEC 2004-T32 Read MPEC 2004-T34


M.P.E.C. 2004-T33                                Issued 2004 Oct.  9, 15:09 UT

     The Minor Planet Electronic Circulars contain information on unusual
         minor planets and routine data on comets.  They are published
   on behalf of Commission 20 of the International Astronomical Union by the
          Minor Planet Center, Smithsonian Astrophysical Observatory,
                          Cambridge, MA 02138, U.S.A.

                  Supported in part by the Brinson Foundation
             Prepared using the Tamkin Foundation Computer Network

                              MPC@CFA.HARVARD.EDU
          URL http://cfa-www.harvard.edu/iau/mpc.html  ISSN 1523-6714

                                   2004 TG10

Observations:
     K04T10G* C2004 10 08.25879 01 44 59.96 +12 34 51.0          20.6 V ET033691
     K04T10G  C2004 10 08.28563 01 44 56.37 +12 34 30.0          20.4 V ET033691
     K04T10G  C2004 10 08.31270 01 44 52.74 +12 34 08.6          20.5 V ET033691
     K04T10G  C2004 10 08.97698 01 43 24.68 +12 25 13.2          20.2 R ET033176
     K04T10G  C2004 10 08.97930 01 43 24.37 +12 25 11.7          20.2 R ET033176
     K04T10G  C2004 10 08.98162 01 43 24.07 +12 25 09.6          20.3 R ET033176
     K04T10G  C2004 10 08.98393 01 43 23.77 +12 25 08.1          20.0 R ET033176
     K04T10G  C2004 10 08.98625 01 43 23.50 +12 25 05.9          20.3 R ET033176
     K04T10G 2C2004 10 09.12782 01 43 04.58 +12 23 22.0          19.3 R ET033I05
     K04T10G 2C2004 10 09.12977 01 43 04.29 +12 23 21.1          19.6 R ET033I05
     K04T10G 2C2004 10 09.13174 01 43 04.05 +12 23 19.1          19.1 R ET033I05
     K04T10G  C2004 10 09.20842 01 42 53.71 +12 22 03.6          19.7 R ET033G90
     K04T10G  C2004 10 09.21153 01 42 53.28 +12 22 01.3          19.9 R ET033G90
     K04T10G  C2004 10 09.21464 01 42 52.87 +12 21 59.3          19.8 R ET033G90
     K04T10G  C2004 10 09.22769 01 42 51.06 +12 21 48.5          20.4 V ET033291
     K04T10G  C2004 10 09.23169 01 42 50.49 +12 21 45.4          20.6 V ET033291
     K04T10G  C2004 10 09.23577 01 42 49.90 +12 21 41.8          20.6 V ET033291
     K04T10G  C2004 10 09.34982 01 42 33.80 +12 20 06.7                 ET033711
     K04T10G  C2004 10 09.35817 01 42 32.60 +12 20 00.7                 ET033711
     K04T10G  C2004 10 09.36652 01 42 31.51 +12 19 52.8                 ET033711
     K04T10G  C2004 10 09.39289 01 42 27.85 +12 19 31.4          20.7 V ET033291
     K04T10G  C2004 10 09.39670 01 42 27.31 +12 19 28.3          20.7 V ET033291
     K04T10G  C2004 10 09.40062 01 42 26.75 +12 19 24.9          20.6 V ET033291

Observer details:
176 Observatori Astronomic de Consell.  Observers A. Lopez, R. Pacheco,
    J. Forteza.  0.41-m f/4 reflector + CCD.
291 LPL/Spacewatch II.  Observer M. Block.  1.8-m f/2.7 reflector + CCD.
691 Steward Observatory, Kitt Peak.  Observer M. Block.  0.9-m f/3 reflector
    + CCD.
711 McDonald Observatory.  Observer J. G. Ries.  0.76-m reflector + CCD
    + prime-focus corrector.
G90 Three Buttes Observatory, Tucson.  Observer G. R. Jones.  0.40-m
    Ritchey-Chretien + CCD.
I05 Las Campanas Observatory-TIE.  Observers G. Masi, F. Mallia, R. Wilcox.
    Measurer G. Masi.  0.36-m SoTIE reflector + CCD.

Orbital elements:
2004 TG10
Epoch 2004 Oct. 2.0 TT = JDT 2453280.5                  MPC
M 336.58987              (2000.0)            P               Q
n   0.23794920     Peri.  309.56708     -0.94725428     -0.31850807
a   2.5791695      Node   211.90621     +0.31077915     -0.88584230
e   0.8828999      Incl.    3.85390     +0.07826653     -0.33739597
P   4.14           H   19.2           G   0.15
From 23 observations 2004 Oct. 8-9.

Ephemeris:
2004 TG10                a,e,i = 2.58, 0.88, 4                   q = 0.3020
Date    TT    R. A. (2000) Decl.     Delta      r     Elong.  Phase     V
2004 10 02    01 56.76   +13 44.2    0.887    1.851   157.1    12.2    21.0
2004 10 12    01 36.17   +11 40.7    0.728    1.723   172.3     4.5    20.1
2004 10 22    01 05.12   +08 17.3    0.599    1.588   169.2     6.7    19.6
2004 11 01    00 23.03   +03 17.5    0.506    1.446   147.7    21.5    19.6
2004 11 11    23 32.44   -03 00.3    0.450    1.295   123.6    39.6    19.6
2004 11 21    22 38.69   -09 33.6    0.427    1.134    98.7    59.4    19.8
2004 12 01    21 44.88   -15 28.0    0.426    0.962    74.2    80.6    20.1

Kyle E. Smalley              (C) Copyright 2004 MPC           M.P.E.C. 2004-T33

Read MPEC 2004-T32 Read MPEC 2004-T34


Our Web policy. Index to the CBAT/MPC/ICQ pages.


Valid HTML 4.01!